Home   Weather   Bern   Past weeks

Flag for Switzerland Past Weather in Bern, Bern, Switzerland — Yesterday and Last 2 Weeks

Now
37 °F

Light rain. Mostly cloudy.


Feels Like: 33 °F
Forecast: 32 / 44 °F
Wind: 6 mph from Northwest

Location: Bern / Belp

Current Time: Apr 27, 2017 at 11:25:12 am

Latest Report: Apr 27, 2017 at 10:50 am


Visibility: N/A

Pressure: 29.95 "Hg (28.04 "Hg at 533m altitude)

Humidity: 93%

Dew Point: 36 °F

Location of BernLocation

Past Weather in Bern — Graph

°F

Bern Temperature Yesterday

Maximum temperature yesterday: 48 °F (at 2:20 am)
Minimum temperature yesterday: 39 °F (at 10:20 pm)
Average temperature yesterday: 42 °F

High & Low Weather Summary for the Past Weeks

 TemperatureHumidityPressure
High70 °F (Apr 12, 4:50 pm)100% (Apr 14, 3:20 am)30.45 "Hg (Apr 14, 3:20 am)
Low21 °F (Apr 21, 5:50 am)23% (Apr 21, 4:50 pm)29.68 "Hg (Apr 25, 10:20 pm)
Average46 °F71%30.10 "Hg
* Reported Apr 12 9:20 am — Apr 27 9:50 am, Bern, Weather by CustomWeather, © 2017

Note: Actual official high and low records may vary slightly from our data, if they occured in-between our weather recording intervals... More about our weather records

Advertising

Bern Weather History for the Previous 24 Hours

Scroll right to see more
 ConditionsComfort  
Time TempWeatherWind HumidityBarometerVisibility
9:50 am
Thu, Apr 27
37 °FCloudy.7 mph93%29.92 "Hg4 mi
9:20 am39 °FLight rain. Mostly cloudy.6 mph87%29.92 "Hg4 mi
8:50 am37 °FLight rain. Broken clouds.3 mph93%29.92 "Hg4 mi
8:20 am37 °FLight rain. Broken clouds.1 mph100%29.92 "Hg4 mi
7:50 am37 °FDrizzle. Broken clouds.2 mph100%29.92 "Hg5 mi
7:20 am37 °FDrizzle. Broken clouds.2 mph100%29.92 "HgN/A
6:50 am37 °FBroken clouds.2 mph93%29.92 "HgN/A
6:20 am37 °FPartly cloudy.2 mph93%29.92 "HgN/A
5:50 am37 °FLight rain. Partly cloudy.3 mph93%29.89 "HgN/A
5:20 am37 °FLight rain. Partly cloudy.2 mph93%29.89 "HgN/A
4:50 am37 °FPartly cloudy.2 mph93%29.89 "HgN/A
4:20 am37 °FPassing clouds.3 mph93%29.89 "HgN/A
3:50 am37 °FLight rain. Partly cloudy.3 mph93%29.89 "Hg6 mi
3:20 am37 °FLight rain. Partly cloudy.3 mph93%29.89 "HgN/A
2:50 am37 °FLight rain. Partly cloudy.5 mph93%29.89 "HgN/A
2:20 am37 °FLight rain. Mostly cloudy.2 mph93%29.89 "HgN/A
1:50 am37 °FLight rain. Partly cloudy.2 mph93%29.89 "HgN/A
1:20 am39 °FLight rain. Partly cloudy.3 mph87%29.89 "HgN/A
12:50 am39 °FLight rain. Partly cloudy.5 mph93%29.89 "HgN/A
12:20 am39 °FLight rain. Partly cloudy.6 mph93%29.89 "Hg4 mi
11:50 pm
Wed, Apr 26
39 °FLight rain. Partly cloudy.5 mph93%29.89 "Hg4 mi
11:20 pm39 °FDrizzle. Low clouds.3 mph93%29.86 "HgN/A
10:50 pm39 °FMostly cloudy.5 mph93%29.86 "HgN/A
10:20 pm39 °FPassing clouds.5 mph93%29.86 "HgN/A
9:50 pm41 °FPassing clouds.5 mph87%29.86 "HgN/A
9:20 pm41 °FPassing clouds.3 mph87%29.86 "HgN/A
8:50 pm41 °FPassing clouds.3 mph87%29.86 "HgN/A
7:50 pm41 °FPartly sunny.3 mph87%29.83 "HgN/A
7:20 pm41 °FLight rain. Broken clouds.5 mph87%29.83 "HgN/A
6:50 pm41 °FBroken clouds.3 mph87%29.83 "HgN/A
6:20 pm41 °FLight rain. Partly sunny.3 mph87%29.83 "HgN/A
5:50 pm41 °FDrizzle. Broken clouds.6 mph87%29.83 "HgN/A
5:20 pm43 °FLight rain. Broken clouds.6 mph87%29.80 "HgN/A
4:50 pm43 °FBroken clouds.8 mph87%29.83 "HgN/A
4:20 pm43 °FBroken clouds.3 mph87%29.80 "HgN/A
3:50 pm43 °FCloudy.5 mph81%29.80 "HgN/A
3:20 pm43 °FCloudy.5 mph87%29.80 "HgN/A
2:50 pm41 °FBroken clouds.7 mph93%29.80 "HgN/A
2:20 pm43 °FPartly sunny.8 mph87%29.80 "HgN/A
1:50 pm43 °FPartly sunny.5 mph81%29.80 "HgN/A
1:20 pm41 °FLight rain. Broken clouds.5 mph87%29.80 "Hg5 mi
12:50 pm41 °FLight rain. More clouds than sun.7 mph93%29.80 "Hg4 mi
12:20 pm41 °FLight rain. Broken clouds.8 mph93%29.77 "Hg3 mi
11:50 am41 °FLight rain. Low clouds.8 mph93%29.77 "Hg3 mi
11:20 am41 °FLight rain. Broken clouds.9 mph93%29.77 "HgN/A
Weather by CustomWeather, © 2017

See weather overviewHow to use our weather pages